Tracking 17938 objects as of 22-February-2017
HD Live streaming from Space Station
objects crossing your sky now

COSMOS 2352

Track COSMOS 2352 now!
10-day predictions
COSMOS 2352 is classified as:


NORAD ID: 25363
Int'l Code: 1998-036A
Perigee: 1,318.5 km
Apogee: 1,880.1 km
Inclination: 82.6 °
Period: 118.0 minutes
Semi major axis: 7970 km
RCS: 1.1335 m2 (large)
Launch date: June 15, 1998
Source: Commonwealth of Independent States (former USSR) (CIS)
Launch site: PLESETSK MISSILE AND SPACE COMPLEX (PKMTR)

Satellites have a single simultaneous earth-space and space-earth channel.
Your satellite tracking list
Your tracking list is empty





NASA's NSSDC Master Catalog

Two Line Element Set (TLE):
1 25363U 98036A   17051.94161913 +.00000023 +00000-0 +11204-3 0  9999
2 25363 082.5909 210.3998 0352340 206.2117 327.2372 12.20088504832270
Source of the keplerian elements: AFSPC